Simultaneous Nadir Overpasses (SNOs) Predictions

Prediction of SNOs between GOES-15 and METOP-A Satellite Orbit:

Table of predicted SNOs for the next 14.0 days since TLE Epoch: 9/13/2014
Index Date Time (GOES-15) GOES-15 Lat,Lon METOP-A Lat,Lon Distance(km) Time Diff (sec)
1 09/13/2014 18:39:54 -0.31,-134.94 0.30,-137.68 312.53 80
2 09/14/2014 18:21:54 -0.30,-134.98 -0.80,-132.69 260.78 80
3 09/16/2014 06:38:14 0.31,-135.00 -0.21,-137.28 260.65 80
4 09/17/2014 06:20:15 0.30,-135.03 0.89,-132.28 312.23 80
5 09/18/2014 18:36:28 -0.32,-135.10 0.05,-136.86 199.91 80
6 09/19/2014 18:18:29 -0.30,-135.13 -1.05,-131.86 372.86 80
7 09/21/2014 06:34:49 0.32,-135.14 0.04,-136.46 149.14 80
8 09/22/2014 06:16:50 0.31,-135.17 1.15,-131.46 423.19 80
9 09/23/2014 18:33:02
